DLH4RX EDDM-EHAM

Flight info

Callsign DLH4RX
Flight time 1h 23m
Altitude 34000
Route GIVMI6S GIVMI Y101 IBAGA DCT MASEK DCT MAPOX DCT NORKU
Aircraft A320/M-SDE2E3FGIJ1LORWXYZ/HB1

Departure

Time 2026-05-05 18:40
Airport Munich Airport (EDDM)

Arrival

Time 2026-05-05 20:03
Airport Amsterdam Airport Schiphol (EHAM)
Time Latitude Longitude Altitude Speed Heading
2026-05-05 18:03 48.35355 11.79326 1471 ft 0 kts 263°
2026-05-05 18:25 48.35357 11.79356 1471 ft 4 kts 263°
2026-05-05 18:26 48.35360 11.79396 1476 ft 4 kts 263°
2026-05-05 18:26 48.35362 11.79429 1477 ft 4 kts 277°
2026-05-05 18:26 48.35353 11.79463 1475 ft 4 kts 321°
2026-05-05 18:26 48.35332 11.79475 1461 ft 4 kts 353°
2026-05-05 18:27 48.35321 11.79477 1460 ft 0 kts 353°
2026-05-05 18:29 48.35324 11.79476 1463 ft 3 kts 353°
2026-05-05 18:30 48.35366 11.79469 1479 ft 9 kts 353°
2026-05-05 18:30 48.35453 11.79455 1484 ft 16 kts 353°
2026-05-05 18:30 48.35579 11.79432 1474 ft 21 kts 353°
2026-05-05 18:30 48.35717 11.79409 1478 ft 15 kts 354°
2026-05-05 18:31 48.35824 11.79391 1483 ft 15 kts 354°
2026-05-05 18:31 48.35902 11.79444 1480 ft 13 kts 56°
2026-05-05 18:31 48.35980 11.79497 1486 ft 11 kts 356°
2026-05-05 18:31 48.36033 11.79490 1481 ft 0 kts 354°
2026-05-05 18:32 48.36045 11.79488 1485 ft 5 kts 353°
2026-05-05 18:33 48.36103 11.79478 1485 ft 12 kts 353°
2026-05-05 18:33 48.36201 11.79498 1475 ft 18 kts 45°
2026-05-05 18:33 48.36232 11.79706 1482 ft 24 kts 84°
2026-05-05 18:33 48.36252 11.79974 1478 ft 28 kts 83°
2026-05-05 18:34 48.36275 11.80265 1480 ft 28 kts 83°
2026-05-05 18:34 48.36291 11.80484 1480 ft 22 kts 84°
2026-05-05 18:34 48.36311 11.80746 1476 ft 28 kts 83°
2026-05-05 18:34 48.36330 11.80990 1485 ft 24 kts 83°
2026-05-05 18:35 48.36352 11.81272 1473 ft 27 kts 83°
2026-05-05 18:35 48.36371 11.81518 1485 ft 26 kts 83°
2026-05-05 18:35 48.36391 11.81782 1480 ft 22 kts 83°
2026-05-05 18:35 48.36415 11.81978 1478 ft 16 kts 52°
2026-05-05 18:36 48.36502 11.81993 1485 ft 15 kts 354°
2026-05-05 18:36 48.36555 11.81984 1485 ft 0 kts 353°
2026-05-05 18:38 48.36570 11.81982 1474 ft 8 kts 353°
2026-05-05 18:38 48.36660 11.81937 1476 ft 19 kts 317°
2026-05-05 18:39 48.36661 11.81750 1478 ft 24 kts 263°
2026-05-05 18:39 48.36621 11.81214 1485 ft 86 kts 263°
2026-05-05 18:39 48.36528 11.80019 1486 ft 141 kts 263°
2026-05-05 18:39 48.36415 11.78382 1783 ft 162 kts 266°
2026-05-05 18:40 48.36315 11.76713 2548 ft 161 kts 266°
2026-05-05 18:40 48.36186 11.75009 3115 ft 173 kts 266°
2026-05-05 18:40 48.36037 11.73086 3432 ft 198 kts 265°
2026-05-05 18:40 48.35866 11.70919 3926 ft 217 kts 264°
2026-05-05 18:41 48.35754 11.68625 4726 ft 223 kts 277°
2026-05-05 18:41 48.36319 11.66356 5137 ft 253 kts 300°
2026-05-05 18:41 48.37351 11.64083 5846 ft 264 kts 302°
2026-05-05 18:41 48.38348 11.61745 6726 ft 270 kts 299°
2026-05-05 18:42 48.39325 11.59315 7697 ft 271 kts 298°
2026-05-05 18:42 48.40285 11.56887 8504 ft 277 kts 298°
2026-05-05 18:42 48.41272 11.54395 8775 ft 278 kts 298°
2026-05-05 18:42 48.42278 11.51897 8826 ft 278 kts 298°
2026-05-05 18:43 48.43281 11.49411 8834 ft 278 kts 298°
2026-05-05 18:43 48.44289 11.46921 8830 ft 278 kts 298°
2026-05-05 18:43 48.45307 11.44413 9469 ft 282 kts 298°
2026-05-05 18:43 48.46346 11.41869 10191 ft 294 kts 298°
2026-05-05 18:44 48.47459 11.39136 10592 ft 315 kts 298°
2026-05-05 18:44 48.48617 11.36282 11306 ft 322 kts 298°
2026-05-05 18:44 48.49795 11.33389 12108 ft 327 kts 298°
2026-05-05 18:44 48.50998 11.30440 12919 ft 332 kts 298°
2026-05-05 18:45 48.52263 11.27504 13694 ft 339 kts 304°
2026-05-05 18:45 48.54036 11.25087 14354 ft 351 kts 325°
2026-05-05 18:45 48.56329 11.23745 15041 ft 361 kts 346°
2026-05-05 18:45 48.58813 11.23046 15734 ft 365 kts 347°
2026-05-05 18:46 48.61326 11.22356 16420 ft 369 kts 347°
2026-05-05 18:46 48.63859 11.21662 17101 ft 372 kts 347°
2026-05-05 18:46 48.66386 11.20966 17764 ft 376 kts 347°
2026-05-05 18:46 48.68977 11.20249 18402 ft 380 kts 347°
2026-05-05 18:47 48.71592 11.19524 18847 ft 383 kts 347°
2026-05-05 18:47 48.74222 11.18793 19423 ft 386 kts 347°
2026-05-05 18:47 48.76880 11.18052 19998 ft 390 kts 347°
2026-05-05 18:47 48.79564 11.17301 20539 ft 395 kts 347°
2026-05-05 18:48 48.82278 11.16539 21093 ft 398 kts 347°
2026-05-05 18:48 48.85015 11.15770 21643 ft 402 kts 347°
2026-05-05 18:48 48.87774 11.14996 22184 ft 405 kts 348°
2026-05-05 18:48 48.90566 11.14216 22719 ft 409 kts 348°
2026-05-05 18:49 48.93337 11.13442 23243 ft 412 kts 348°
2026-05-05 18:49 48.96159 11.12648 23709 ft 416 kts 348°
2026-05-05 18:49 48.99022 11.11844 24135 ft 419 kts 348°
2026-05-05 18:49 49.01906 11.11036 24539 ft 423 kts 348°
2026-05-05 18:50 49.04812 11.10220 24949 ft 426 kts 348°
2026-05-05 18:50 49.07738 11.09397 25358 ft 430 kts 348°
2026-05-05 18:50 49.10680 11.08513 25785 ft 432 kts 344°
2026-05-05 18:50 49.13552 11.07154 26200 ft 434 kts 340°
2026-05-05 18:51 49.16429 11.05681 26615 ft 437 kts 340°
2026-05-05 18:51 49.19295 11.04116 27002 ft 438 kts 333°
2026-05-05 18:51 49.21881 11.01683 27376 ft 438 kts 319°
2026-05-05 18:51 49.24267 10.98759 27733 ft 441 kts 319°
2026-05-05 18:52 49.26656 10.95804 28121 ft 444 kts 319°
2026-05-05 18:52 49.29028 10.92855 28477 ft 447 kts 319°
2026-05-05 18:52 49.31448 10.89837 28859 ft 450 kts 319°
2026-05-05 18:52 49.33880 10.86801 29227 ft 453 kts 319°
2026-05-05 18:53 49.36333 10.83738 29592 ft 456 kts 319°
2026-05-05 18:53 49.38800 10.80656 29935 ft 459 kts 319°
2026-05-05 18:53 49.41283 10.77553 30248 ft 461 kts 319°
2026-05-05 18:53 49.43777 10.74435 30593 ft 463 kts 319°
2026-05-05 18:54 49.46276 10.71309 30906 ft 464 kts 319°
2026-05-05 18:54 49.48783 10.68169 31184 ft 466 kts 319°
2026-05-05 18:54 49.51273 10.65053 31455 ft 469 kts 319°
2026-05-05 18:54 49.53799 10.61886 31846 ft 468 kts 319°
2026-05-05 18:55 49.56317 10.58723 32267 ft 467 kts 319°
2026-05-05 18:55 49.58829 10.55556 32665 ft 466 kts 319°
2026-05-05 18:55 49.61331 10.52390 33066 ft 465 kts 319°
2026-05-05 18:55 49.63831 10.49221 33486 ft 464 kts 319°
2026-05-05 18:56 49.66321 10.46058 33888 ft 463 kts 318°
2026-05-05 18:56 49.68807 10.42901 34233 ft 463 kts 318°
2026-05-05 18:56 49.71291 10.39751 34591 ft 462 kts 319°
2026-05-05 18:56 49.73775 10.36606 34878 ft 462 kts 319°
2026-05-05 18:57 49.76262 10.33451 35160 ft 462 kts 318°
2026-05-05 18:57 49.78708 10.30332 35468 ft 461 kts 318°
2026-05-05 18:57 49.81176 10.27176 35760 ft 461 kts 318°
2026-05-05 18:57 49.83637 10.24023 35826 ft 456 kts 318°
2026-05-05 18:58 49.88486 10.17804 35829 ft 450 kts 318°
2026-05-05 18:58 49.93307 10.11601 35830 ft 450 kts 318°
2026-05-05 18:59 49.98115 10.05405 35860 ft 450 kts 318°
2026-05-05 18:59 50.02946 9.99180 35830 ft 451 kts 318°
2026-05-05 19:00 50.07777 9.92929 35829 ft 452 kts 318°
2026-05-05 19:00 50.12567 9.86700 35823 ft 452 kts 318°
2026-05-05 19:01 50.17385 9.80419 35821 ft 451 kts 318°
2026-05-05 19:01 50.19779 9.77299 35579 ft 446 kts 318°
2026-05-05 19:01 50.22151 9.74205 35342 ft 444 kts 318°
2026-05-05 19:02 50.24525 9.71106 35091 ft 444 kts 318°
2026-05-05 19:02 50.26886 9.68015 34864 ft 445 kts 318°
2026-05-05 19:02 50.29267 9.64884 34614 ft 446 kts 318°
2026-05-05 19:02 50.31645 9.61757 34376 ft 448 kts 318°
2026-05-05 19:03 50.33224 9.59678 34212 ft 449 kts 318°
2026-05-05 19:03 50.35621 9.56519 33977 ft 450 kts 318°
2026-05-05 19:03 50.38799 9.52329 33792 ft 451 kts 319°
2026-05-05 19:03 50.40425 9.50187 33835 ft 452 kts 319°
2026-05-05 19:04 50.46015 9.42800 33824 ft 453 kts 318°
2026-05-05 19:04 50.50008 9.37497 33813 ft 453 kts 318°
2026-05-05 19:05 50.54804 9.31115 33838 ft 451 kts 318°
2026-05-05 19:05 50.59586 9.24744 33813 ft 450 kts 318°
2026-05-05 19:06 50.64360 9.18358 33803 ft 450 kts 318°
2026-05-05 19:06 50.69122 9.11973 33800 ft 450 kts 318°
2026-05-05 19:07 50.73894 9.05561 33798 ft 450 kts 318°
2026-05-05 19:07 50.78626 8.99187 33804 ft 450 kts 317°
2026-05-05 19:08 50.83389 8.92743 33801 ft 450 kts 317°
2026-05-05 19:08 50.88139 8.86289 33806 ft 450 kts 317°
2026-05-05 19:09 50.92890 8.79827 33804 ft 450 kts 317°
2026-05-05 19:09 50.97631 8.73366 33802 ft 450 kts 317°
2026-05-05 19:10 51.02375 8.66884 33802 ft 450 kts 317°
2026-05-05 19:10 51.07086 8.60426 33801 ft 450 kts 317°
2026-05-05 19:11 51.11825 8.53914 33835 ft 450 kts 317°
2026-05-05 19:11 51.16555 8.47398 33823 ft 450 kts 317°
2026-05-05 19:12 51.21278 8.40861 33825 ft 450 kts 316°
2026-05-05 19:12 51.26003 8.34304 33822 ft 450 kts 316°
2026-05-05 19:13 51.30721 8.27735 33826 ft 450 kts 316°
2026-05-05 19:13 51.35399 8.21210 33827 ft 449 kts 316°
2026-05-05 19:14 51.40110 8.14623 33850 ft 449 kts 316°
2026-05-05 19:14 51.44807 8.08044 33851 ft 449 kts 316°
2026-05-05 19:15 51.49497 8.01458 33850 ft 448 kts 316°
2026-05-05 19:15 51.54173 7.94866 33845 ft 447 kts 315°
2026-05-05 19:16 51.58839 7.88266 33848 ft 446 kts 315°
2026-05-05 19:16 51.63494 7.81663 33850 ft 445 kts 315°
2026-05-05 19:17 51.68105 7.75098 33867 ft 445 kts 315°
2026-05-05 19:17 51.72732 7.68495 33853 ft 445 kts 315°
2026-05-05 19:18 51.77362 7.61860 33695 ft 445 kts 315°
2026-05-05 19:18 51.79666 7.58552 33417 ft 442 kts 315°
2026-05-05 19:18 51.81954 7.55266 33143 ft 438 kts 315°
2026-05-05 19:19 51.84217 7.52015 32875 ft 434 kts 315°
2026-05-05 19:19 51.86464 7.48782 32607 ft 431 kts 315°
2026-05-05 19:19 51.88700 7.45561 32233 ft 429 kts 315°
2026-05-05 19:19 51.90890 7.42400 31847 ft 426 kts 315°
2026-05-05 19:20 51.93100 7.39203 31460 ft 429 kts 315°
2026-05-05 19:20 51.95334 7.35964 31077 ft 432 kts 315°
2026-05-05 19:20 51.97567 7.32721 30719 ft 430 kts 315°
2026-05-05 19:20 51.99789 7.29495 30337 ft 427 kts 315°
2026-05-05 19:21 52.02003 7.26283 29969 ft 424 kts 316°
2026-05-05 19:21 52.04197 7.23098 29557 ft 421 kts 316°
2026-05-05 19:21 52.06365 7.19940 29136 ft 419 kts 315°
2026-05-05 19:21 52.08524 7.16786 28720 ft 414 kts 315°
2026-05-05 19:22 52.10654 7.13669 28309 ft 411 kts 315°
2026-05-05 19:22 52.12748 7.10599 27909 ft 409 kts 315°
2026-05-05 19:22 52.14855 7.07510 27510 ft 406 kts 315°
2026-05-05 19:22 52.16946 7.04444 27118 ft 404 kts 315°
2026-05-05 19:23 52.19024 7.01394 26731 ft 401 kts 315°
2026-05-05 19:23 52.21078 6.98346 26348 ft 398 kts 312°
2026-05-05 19:23 52.22897 6.94984 26015 ft 391 kts 305°
2026-05-05 19:23 52.24581 6.91587 25781 ft 382 kts 306°
2026-05-05 19:24 52.26219 6.88278 25529 ft 377 kts 305°
2026-05-05 19:24 52.27859 6.84968 25293 ft 374 kts 306°
2026-05-05 19:24 52.29499 6.81692 25065 ft 372 kts 306°
2026-05-05 19:24 52.31138 6.78426 24811 ft 371 kts 306°
2026-05-05 19:25 52.32774 6.75162 24566 ft 370 kts 306°
2026-05-05 19:25 52.34393 6.71923 24344 ft 367 kts 306°
2026-05-05 19:25 52.36004 6.68694 24105 ft 364 kts 305°
2026-05-05 19:25 52.37596 6.65496 23868 ft 362 kts 305°
2026-05-05 19:26 52.39181 6.62303 23634 ft 361 kts 305°
2026-05-05 19:26 52.40759 6.59114 23388 ft 360 kts 305°
2026-05-05 19:26 52.42305 6.55980 23010 ft 358 kts 305°
2026-05-05 19:26 52.43889 6.52762 22639 ft 365 kts 306°
2026-05-05 19:27 52.45404 6.49436 22265 ft 363 kts 298°
2026-05-05 19:27 52.46500 6.45748 21915 ft 358 kts 287°
2026-05-05 19:27 52.47102 6.41819 21534 ft 353 kts 275°
2026-05-05 19:27 52.47315 6.37822 21181 ft 351 kts 272°
2026-05-05 19:28 52.47507 6.33828 20822 ft 350 kts 272°
2026-05-05 19:28 52.47703 6.29868 20465 ft 348 kts 272°
2026-05-05 19:28 52.47902 6.25911 20111 ft 347 kts 272°
2026-05-05 19:28 52.48100 6.21974 19757 ft 346 kts 272°
2026-05-05 19:29 52.48292 6.18115 19408 ft 344 kts 274°
2026-05-05 19:29 52.48481 6.14212 19070 ft 343 kts 272°
2026-05-05 19:29 52.48663 6.10317 18700 ft 340 kts 272°
2026-05-05 19:29 52.48822 6.06469 18424 ft 334 kts 272°
2026-05-05 19:30 52.48916 6.02708 18158 ft 328 kts 270°
2026-05-05 19:30 52.48975 5.98982 17754 ft 326 kts 271°
2026-05-05 19:30 52.49104 5.95197 16899 ft 338 kts 274°
2026-05-05 19:30 52.49300 5.91338 16339 ft 340 kts 275°
2026-05-05 19:31 52.49518 5.87537 15891 ft 339 kts 275°
2026-05-05 19:31 52.49743 5.83703 15481 ft 336 kts 275°
2026-05-05 19:31 52.49959 5.79898 15081 ft 334 kts 275°
2026-05-05 19:31 52.50164 5.76107 14681 ft 332 kts 275°
2026-05-05 19:32 52.50360 5.72340 14296 ft 330 kts 275°
2026-05-05 19:32 52.50548 5.68598 13898 ft 329 kts 275°
2026-05-05 19:32 52.50731 5.64877 13485 ft 325 kts 275°
2026-05-05 19:32 52.50909 5.61209 12722 ft 320 kts 275°
2026-05-05 19:33 52.50969 5.57584 11926 ft 316 kts 265°
2026-05-05 19:33 52.50506 5.54160 11439 ft 306 kts 251°
2026-05-05 19:33 52.49805 5.50932 10907 ft 297 kts 251°
2026-05-05 19:33 52.49127 5.47757 10299 ft 293 kts 252°
2026-05-05 19:34 52.48461 5.44621 9625 ft 290 kts 252°
2026-05-05 19:34 52.47798 5.41505 9207 ft 287 kts 251°
2026-05-05 19:34 52.47142 5.38438 9142 ft 285 kts 252°
2026-05-05 19:35 52.45819 5.32305 9007 ft 285 kts 251°
2026-05-05 19:35 52.45160 5.29273 8904 ft 285 kts 251°
2026-05-05 19:35 52.44496 5.26226 8790 ft 285 kts 251°
2026-05-05 19:35 52.43830 5.23165 8682 ft 284 kts 251°
2026-05-05 19:36 52.43168 5.20118 8570 ft 284 kts 252°
2026-05-05 19:36 52.42506 5.17078 8459 ft 283 kts 251°
2026-05-05 19:36 52.41843 5.14043 8347 ft 283 kts 252°
2026-05-05 19:36 52.41175 5.11004 8232 ft 283 kts 251°
2026-05-05 19:37 52.40507 5.07974 8124 ft 283 kts 251°
2026-05-05 19:37 52.39841 5.04958 8007 ft 282 kts 251°
2026-05-05 19:37 52.39179 5.01939 7906 ft 282 kts 252°
2026-05-05 19:37 52.38524 4.98956 7794 ft 282 kts 251°
2026-05-05 19:38 52.37863 4.95953 7682 ft 281 kts 252°
2026-05-05 19:38 52.37198 4.92936 7568 ft 282 kts 252°
2026-05-05 19:38 52.36531 4.89917 7464 ft 282 kts 252°
2026-05-05 19:38 52.35862 4.86901 7353 ft 282 kts 251°
2026-05-05 19:39 52.35190 4.83888 7245 ft 283 kts 252°
2026-05-05 19:39 52.34527 4.80909 7124 ft 273 kts 252°
2026-05-05 19:39 52.33892 4.78065 6995 ft 260 kts 253°
2026-05-05 19:39 52.33465 4.75271 6807 ft 249 kts 267°
2026-05-05 19:40 52.33558 4.72492 6617 ft 241 kts 284°
2026-05-05 19:40 52.33938 4.69832 6394 ft 240 kts 287°
2026-05-05 19:40 52.34314 4.67172 6118 ft 239 kts 284°
2026-05-05 19:40 52.34430 4.64467 5852 ft 244 kts 268°
2026-05-05 19:41 52.33981 4.61796 5565 ft 248 kts 246°
2026-05-05 19:41 52.33085 4.59370 5297 ft 252 kts 239°
2026-05-05 19:41 52.32147 4.56957 5014 ft 253 kts 240°
2026-05-05 19:41 52.31208 4.54532 4737 ft 251 kts 239°
2026-05-05 19:42 52.30275 4.52118 4446 ft 251 kts 239°
2026-05-05 19:42 52.29348 4.49714 4217 ft 249 kts 239°
2026-05-05 19:42 52.28421 4.47321 3950 ft 250 kts 239°
2026-05-05 19:42 52.27420 4.45022 3673 ft 250 kts 224°
2026-05-05 19:43 52.25910 4.43709 3398 ft 247 kts 187°
2026-05-05 19:43 52.24248 4.43964 3088 ft 238 kts 152°
2026-05-05 19:43 52.22888 4.45333 2806 ft 229 kts 135°
2026-05-05 19:43 52.21835 4.47193 2515 ft 220 kts 117°
2026-05-05 19:44 52.21180 4.49366 2281 ft 208 kts 101°
2026-05-05 19:44 52.20998 4.51635 2045 ft 197 kts 81°
2026-05-05 19:44 52.21294 4.53707 2000 ft 180 kts 61°
2026-05-05 19:44 52.21875 4.55425 1990 ft 169 kts 56°
2026-05-05 19:45 52.22482 4.57042 1990 ft 166 kts 56°
2026-05-05 19:45 52.23091 4.58632 1992 ft 165 kts 56°
2026-05-05 19:45 52.23694 4.60196 1906 ft 162 kts 55°
2026-05-05 19:45 52.24282 4.61720 1723 ft 156 kts 55°
2026-05-05 19:46 52.24849 4.63190 1518 ft 151 kts 55°
2026-05-05 19:46 52.25394 4.64602 1328 ft 141 kts 55°
2026-05-05 19:46 52.25895 4.65900 1130 ft 132 kts 55°
2026-05-05 19:46 52.26373 4.67138 958 ft 126 kts 54°
2026-05-05 19:47 52.26841 4.68351 796 ft 127 kts 54°
2026-05-05 19:47 52.27312 4.69574 639 ft 126 kts 53°
2026-05-05 19:47 52.27783 4.70801 460 ft 127 kts 51°
2026-05-05 19:47 52.28257 4.72037 283 ft 127 kts 54°
2026-05-05 19:48 52.28720 4.73254 118 ft 126 kts 55°
2026-05-05 19:48 52.29188 4.74438 33 ft 120 kts 52°
2026-05-05 19:48 52.29588 4.75565 206 ft 125 kts 58°
2026-05-05 19:48 52.29996 4.77100 643 ft 167 kts 61°
2026-05-05 19:49 52.30548 4.78949 1405 ft 192 kts 59°
2026-05-05 19:49 52.30987 4.80275 2032 ft 204 kts 60°
2026-05-05 19:49 52.31706 4.82975 3688 ft 193 kts 63°
2026-05-05 19:49 52.32243 4.85000 4606 ft 196 kts 64°
2026-05-05 19:50 52.32805 4.87105 4937 ft 204 kts 64°
2026-05-05 19:50 52.33369 4.89224 4997 ft 203 kts 64°
2026-05-05 19:50 52.33931 4.91339 5004 ft 202 kts 64°
2026-05-05 19:50 52.34493 4.93453 5004 ft 203 kts 64°
2026-05-05 19:51 52.35279 4.95337 5012 ft 201 kts 39°
2026-05-05 19:51 52.36527 4.96323 5004 ft 202 kts 10°
2026-05-05 19:51 52.37902 4.96114 5010 ft 206 kts 340°
2026-05-05 19:51 52.39052 4.94686 5001 ft 214 kts 310°
2026-05-05 19:52 52.39558 4.92372 5003 ft 224 kts 275°
2026-05-05 19:52 52.39161 4.89898 5006 ft 230 kts 238°
2026-05-05 19:52 52.38211 4.87765 5011 ft 235 kts 237°
2026-05-05 19:52 52.37302 4.85541 5007 ft 235 kts 239°
2026-05-05 19:53 52.36424 4.83285 5006 ft 233 kts 239°
2026-05-05 19:53 52.35552 4.81030 5010 ft 234 kts 240°
2026-05-05 19:53 52.34681 4.78791 5007 ft 232 kts 239°
2026-05-05 19:53 52.33842 4.76583 5000 ft 232 kts 246°
2026-05-05 19:54 52.33452 4.74073 5004 ft 227 kts 274°
2026-05-05 19:54 52.33686 4.71574 5008 ft 222 kts 288°
2026-05-05 19:54 52.34042 4.69120 5010 ft 222 kts 287°
2026-05-05 19:54 52.34388 4.66661 5004 ft 223 kts 287°
2026-05-05 19:55 52.34445 4.64107 5001 ft 230 kts 265°
2026-05-05 19:55 52.33948 4.61595 5001 ft 234 kts 243°
2026-05-05 19:55 52.33088 4.59336 4820 ft 234 kts 239°
2026-05-05 19:55 52.32215 4.57097 4572 ft 234 kts 239°
2026-05-05 19:56 52.31348 4.54864 4315 ft 232 kts 239°
2026-05-05 19:56 52.30496 4.52668 4064 ft 231 kts 239°
2026-05-05 19:56 52.29635 4.50444 3802 ft 232 kts 239°
2026-05-05 19:56 52.28777 4.48224 3545 ft 231 kts 239°
2026-05-05 19:57 52.27918 4.46015 3282 ft 230 kts 238°
2026-05-05 19:57 52.27222 4.44720 3117 ft 229 kts 218°
2026-05-05 19:57 52.25272 4.43642 2764 ft 221 kts 173°
2026-05-05 19:57 52.23854 4.44295 2501 ft 207 kts 143°
2026-05-05 19:58 52.22684 4.45600 2241 ft 201 kts 132°
2026-05-05 19:58 52.21780 4.47274 1997 ft 192 kts 115°
2026-05-05 19:58 52.21223 4.49127 1918 ft 178 kts 101°
2026-05-05 19:59 52.22009 4.55820 1904 ft 145 kts 55°
2026-05-05 19:59 52.22543 4.57215 1911 ft 145 kts 55°
2026-05-05 20:00 52.23079 4.58606 1907 ft 144 kts 55°
2026-05-05 20:00 52.23612 4.59985 1906 ft 144 kts 54°
2026-05-05 20:00 52.24143 4.61362 1759 ft 141 kts 54°
2026-05-05 20:00 52.24645 4.62663 1591 ft 130 kts 55°
2026-05-05 20:01 52.25120 4.63893 1432 ft 126 kts 55°
2026-05-05 20:01 52.25586 4.65099 1272 ft 126 kts 55°
2026-05-05 20:01 52.26045 4.66288 1084 ft 125 kts 54°
2026-05-05 20:01 52.26511 4.67495 908 ft 126 kts 55°
2026-05-05 20:02 52.26977 4.68702 739 ft 125 kts 54°
2026-05-05 20:02 52.27440 4.69905 581 ft 125 kts 53°
2026-05-05 20:02 52.27910 4.71125 408 ft 127 kts 53°
2026-05-05 20:02 52.28379 4.72342 239 ft 125 kts 54°
2026-05-05 20:03 52.28838 4.73555 69 ft 125 kts 56°
2026-05-05 20:03 52.29297 4.74708 1 ft 105 kts 53°
2026-05-05 20:03 52.29575 4.75404 -2 ft 60 kts 59°
2026-05-05 20:03 52.29779 4.75783 -2 ft 25 kts 31°
2026-05-05 20:04 52.29863 4.75868 -1 ft 6 kts 32°
2026-05-05 20:04 52.29866 4.75870 -1 ft 0 kts 31°
2026-05-05 20:04 52.29870 4.75874 -1 ft 4 kts 31°
2026-05-05 20:04 52.29933 4.75936 -1 ft 16 kts 30°
2026-05-05 20:05 52.30035 4.76102 -1 ft 25 kts 60°
2026-05-05 20:05 52.30121 4.76283 -1 ft 16 kts 38°
2026-05-05 20:05 52.30194 4.76264 -1 ft 10 kts 340°
2026-05-05 20:05 52.30232 4.76236 -1 ft 3 kts 330°
2026-05-05 20:06 52.30253 4.76214 -1 ft 4 kts 326°
2026-05-05 20:06 52.30275 4.76190 -1 ft 2 kts 326°
2026-05-05 20:06 52.30283 4.76180 -1 ft 1 kts 326°
2026-05-05 20:06 52.30292 4.76171 -1 ft 4 kts 329°
2026-05-05 20:07 52.30330 4.76194 -1 ft 2 kts 59°
2026-05-05 20:07 52.30335 4.76209 -1 ft 0 kts 60°